Location: Pedimozza
(42.0500°N, 9.3500°E)
Time: 16:39:18
(UTC+00:00)

Cosmos 1833 Rocket - Pass Details

Date: 19 August 2019
Orbit: 834 x 838 km, 71.0° (Epoch: 17 October)

Event Time Altitude Azimuth Distance (km) Brightness Sun altitude
Exits shadow 21:04:36 70° 85° (E) 890 2.6 -26.4°
Drops below altitude 10° 21:09:54 10° 28° (NNE) 2,457 5.4 -27.0°
Sets 21:12:21 0° 27° (NNE) 3,394 6.2 -27.2°
